Regional Weather Roundup
Issued by NWS

Home | Current Version | Previous Version | Text Only | Print | Product List | Glossary Off
Versions: 1 2 3 4 5 6 7 8 9 10 11 12 13 14 15 16 17 18 19 20 21 22 23 24 25 26 27 28 29 30 31 32 33 34 35 36 37 38 39 40 41 42 43 44 45 46 47 48 49 50

000
ASUS43 KMKX 191120
RWRWI

WISCONSIN REGIONAL WEATHER ROUNDUP
NATIONAL WEATHER SERVICE MILWAUKEE/SULLIVAN WI
500 AM CST FRI JAN 19 2018

NOTE: "FAIR" INDICATES FEW OR NO CLOUDS BELOW 12,000 FEET WITH NO
SIGNIFICANT WEATHER AND/OR OBSTRUCTIONS TO VISIBILITY.

WIZ001-002-006>008-014>016-023>028-191200-
NORTHWEST WISCONSIN

CITY           SKY/WX    TMP DP  RH WIND       PRES   REMARKS
SUPERIOR ARPT  FAIR      27  24  88 SW3       29.59S
ASHLAND        NOT AVBL
HAYWARD        FAIR      25  21  85 S6        29.63F WCI  18
SIREN          FAIR      29  26  88 SW5       29.63S WCI  24
CUMBERLAND     FAIR      23  21  93 S8        29.64F WCI  14
RICE LAKE      FAIR      24  22  93 SE6       29.67F WCI  17
CHETEK         FAIR      21  19  93 S5        29.67F WCI  15
LADYSMITH      FAIR      25  22  89 S6        29.67F WCI  18
EAU CLAIRE     FAIR      22  20  92 S3        29.69F
MENOMONIE      FAIR      24  21  88 S6        29.70S WCI  17
NEW RICHMOND   FAIR      28  23  84 S7        29.65F WCI  20
OSCEOLA        FAIR      28  25  86 S6        29.67F WCI  22
$$

WIZ003>005-009-010-017-018-191200-
NORTH CENTRAL WISCONSIN

CITY           SKY/WX    TMP DP  RH WIND       PRES   REMARKS
MANITOWISH WTR FAIR      24  24 100 SW7       29.61F WCI  16
ARBOR VITAE    FAIR      24  22  93 S5        29.62F WCI  18
WOODRUFF       FAIR      24  22  93 S5        29.62F WCI  18
RHINELANDER    FAIR      23  21  92 SW6       29.65F WCI  16
EAGLE RIVER    FAIR      20  19  98 S3        29.62F
LAND O LAKES   FAIR      21  20  96 CALM      29.63F
PHILLIPS       FAIR      24  22  94 SW6       29.64F WCI  17
TOMAHAWK       FAIR      20  19  94 CALM      29.67F
MEDFORD        FAIR      20  17  90 S6        29.67F WCI  12
MERRILL        FAIR      15  14  95 CALM      29.69F
$$

WIZ029-030-035-036-043>047-191200-
CENTRAL WISCONSIN

CITY           SKY/WX    TMP DP  RH WIND       PRES   REMARKS
WAUSAU         FAIR      24  19  81 VRB5      29.68F WCI  18
MOSINEE        FAIR      19  19 100 S6        29.71F WCI  11
MARSHFIELD     FAIR      22  18  85 SW7       29.69F WCI  13
STEVENS POINT  FAIR      20  18  89 S5        29.72F WCI  14
WAUPACA        FAIR      23  18  80 S5        29.76S WCI  17
WAUTOMA        FAIR      20  16  84 SW3       29.77S
WISC RAPIDS    FAIR      22  16  78 SW7       29.74F WCI  13
CAMP DOUGLAS   FAIR      25  19  78 S3        29.75F
$$

WIZ011>013-019>022-031-037>040-048>050-191200-
NORTHEAST WISCONSIN

CITY           SKY/WX    TMP DP  RH WIND       PRES   REMARKS
ANTIGO         FAIR      18  17  94 SW3       29.68F
SHAWANO        FAIR      25  19  80 CALM      29.73S
OCONTO         FAIR      19  16  88 CALM      29.74S
STURGEON BAY   FAIR      24  18  77 SW8       29.75F WCI  15
GREEN BAY      FAIR      22  16  78 SW8       29.76S WCI  12
MANITOWOC      FAIR      25  19  78 S6        29.79F WCI  18
APPLETON       FAIR      23  16  74 SW8       29.74F WCI  14
CLINTONVILLE   FAIR      21  18  86 SW5       29.74S WCI  15
OSHKOSH        FAIR      23  18  81 S8        29.77F WCI  14
$$

WIZ032>034-041-042-053>061-191200-
SOUTHWEST WISCONSIN

CITY           SKY/WX    TMP DP  RH WIND       PRES   REMARKS
LA CROSSE      FAIR      26  19  74 S9        29.77S WCI  17
SPARTA         FAIR      27  21  80 S3        29.77S
VIROQUA        FAIR      24  21  91 S7        29.75S WCI  15
BOSCOBEL       FAIR      20  16  84 SW3       29.82F
PRAIRIE DU CHI FAIR      26  19  73 CALM      29.81F
PLATTEVILLE    FAIR      24  21  89 S9        29.83S WCI  14
$$

WIZ056-057-062-063-064-067-068-191200-
SOUTH CENTRAL WISCONSIN

CITY           SKY/WX    TMP DP  RH WIND       PRES   REMARKS
REEDSBURG      FAIR      26  19  77 SW6       29.78S WCI  19
BARABOO/DELLS  FAIR      26  19  75 SW8       29.77F WCI  18
LONE ROCK      FAIR      21  18  88 S5        29.82S WCI  15
MINERAL POINT  FAIR      27  23  86 S8        29.81R WCI  18
MADISON        FAIR      26  19  74 VRB3      29.83R
MIDDLETON      FAIR      28  21  75 SW10      29.82S WCI  19
WATERTOWN      NOT AVBL
MONROE         FAIR      27  21  80 SW16      29.82F WCI  14
JANESVILLE     FAIR      27  21  80 SW10      29.84F WCI  17
$$

WIZ051-052-058>065-066-070>072-191200-
SOUTHEAST WISCONSIN

CITY           SKY/WX    TMP DP  RH WIND       PRES   REMARKS
MILWAUKEE      FAIR      28  20  71 SW8       29.84S WCI  20
WAUKESHA       FAIR      27  19  74 SW10      29.83S WCI  17
MILWAUKEE/TIMM FAIR      28  19  69 SW8       29.83S WCI  20
RACINE         FAIR      28  20  71 SW12      29.86F WCI  18
BURLINGTON     FAIR      25  18  75 SW6       29.85F WCI  18
KENOSHA        FAIR      30  19  63 SW10      29.85F WCI  21
FOND DU LAC    FAIR      26  17  68 SW10      29.79F WCI  16
SHEBOYGAN      FAIR      24  18  77 S8        29.78F WCI  15
WEST BEND      FAIR      27  21  80 SW12      29.80S WCI  16
JUNEAU         FAIR      21  17  85 S8        29.82S WCI  12
$$

LSZ147-162-191200-
LAKE SUPERIOR

STATION/POSITION TIME  TEMP    WIND        PRES    WAVE
                       AIR SEA DIR/SP/G            HT/PER
                 (UTC) (F)     (DEG/KT/KT) (MB)    (FT/S)
DEVILS ISLAND    1100   30     180/  5/  7 1001.9F
SAXON HARBOR     1040   32     190/  6/ 10 1001.7F
$$

LMZ867-665-643>646-191200-
LAKE MICHIGAN

STATION/POSITION TIME  TEMP    WIND        PRES    WAVE
                       AIR SEA DIR/SP/G            HT/PER
                 (UTC) (F)     (DEG/KT/KT) (MB)    (FT/S)
NORTHPORT PIER   1058   28     220/  4     1006.4F
KEWAUNEE LAKESHO 1054   25     200/  4/  6 1007.3F
SHEBOYGAN LAKESH 1100   27     190/ 12/ 13 1009.5F
PORT WASHINGTON  1040   28     200/  4/  9 1010.8S
MILWAUKEE LAKESH 1050   30     240/ 10/ 13   N/A
KENOSHA   LAKESH 1100   31     210/  6/ 12 1011.5
$$

TC  - TEMPERATURE IN CELSIUS
VSB - VISIBILITY IN STATUTE MILES
WCI - WIND CHILL INDEX
HX  - HEAT INDEX





USA.gov is the U.S. government's official web portal to all federal, state and local government web resources and services.